Regional Weather Roundup
Issued by NWS

Home | Current Version | Previous Version | Graphics & Text | Print | Product List | Glossary On
Versions: 1 2 3 4 5 6 7 8 9 10 11 12 13 14 15 16 17 18 19 20 21 22 23 24 25 26 27 28 29 30 31 32 33 34 35 36 37 38 39 40 41 42 43 44 45 46 47 48 49 50
000
ASUS43 KIND 131659
RWRIN

WEATHER ROUNDUP FOR INDIANA
NATIONAL WEATHER SERVICE INDIANAPOLIS IN
1200 PM EST WED DEC 13 2017

NOTE: "FAIR" INDICATES FEW OR NO CLOUDS BELOW 12,000 FEET WITH NO
SIGNIFICANT WEATHER AND/OR OBSTRUCTIONS TO VISIBILITY.

* - STATION DOES NOT REPORT WEATHER SUCH AS PRECIPITATION OR FOG.

+ - STATION NOT QUALITY CONTROLLED BY THE NATIONAL WEATHER SERVICE.
    USE DATA WITH CAUTION...ESPECIALLY DEWPOINT AND RELATIVE
    HUMIDITY OBSERVATIONS.

INZ001>003-010>013-019-020-131800-
NORTHWEST INDIANA

CITY           SKY/WX    TMP DP  RH WIND       PRES   REMARKS
GARY /AIRPORT/ CLOUDY    34  10  37 S14G29    29.44F WCI  24
KNOX *+        CLOUDY    30  14  51 S17       29.47F WCI  18
LA PORTE +     CLOUDY    28  13  55 S13       29.45F WCI  17
MICHIGAN CITY+ CLOUDY    30  12  47 S13G23    29.41F WCI  20
MONTICELLO +   CLOUDY    32  10  40 S17       29.48F WCI  21
RENSSELAER +   CLOUDY    34   9  35 S18G29    29.43F WCI  23

$$

LMZ046-743>745-131800-
SOUTHERN LAKE MICHIGAN

STATION/POSITION TIME  TEMP    WIND        PRES    WAVE
                       AIR SEA DIR/SP/G            HT
                 (UTC) (F)     (DEG/KT/KT) (MB)    (FT)
BURNS HARBOR     1640   31     170/ 15/ 27  996.6F
MICHIGAN CITY    1630   28     150/ 21/ 27   N/A

$$

INZ004-005-014>016-021>024-131800-
NORTH CENTRAL INDIANA

CITY           SKY/WX    TMP DP  RH WIND       PRES   REMARKS
GOSHEN         CLOUDY    27  12  53 SE17G26   29.52F WCI  14
PERU/GRISSOM   CLOUDY    30  10  42 S20G25    29.52F WCI  18
ROCHESTER +    CLOUDY    32  14  47 S17       29.52F WCI  21
SOUTH BEND     CLOUDY    26  13  57 S22G28    29.47F WCI  12
WARSAW +       CLOUDY    27  12  54 S10G17    29.54F WCI  17

$$

INZ006>009-017-018-025>027-131800-
NORTHEAST INDIANA

CITY           SKY/WX    TMP DP  RH WIND       PRES   REMARKS
AUBURN +       CLOUDY    27  12  54 SE7       29.61F WCI  19
FORT WAYNE     FLURRIES  26  14  60 S18       29.59F WCI  13
KENDALLVILLE + CLOUDY    23  13  64 S13G21    29.59F WCI  11

$$

INZ028-029-035-036-043>045-051>053-131800-
WEST CENTRAL INDIANA

CITY           SKY/WX    TMP DP  RH WIND       PRES   REMARKS
CRAWFORDSVL +  CLOUDY    32  15  48 S21G30      N/A  WCI  20
GREENCASTLE +  CLOUDY    34  14  44 S13G18    29.58F WCI  25
LAFAYETTE      CLOUDY    34  16  47 S17G29    29.49F WCI  23
TERRE HAUTE    CLOUDY    36  15  42 S20G36    29.57F WCI  25

$$

INZ030>032-037>040-046>048-054>057-064-065-131800-
CENTRAL INDIANA

CITY           SKY/WX    TMP DP  RH WIND       PRES   REMARKS
ANDERSON       CLOUDY    30   9  40 S17G35    29.64F WCI  18
COLUMBUS       CLOUDY    30   5  34 S23G30    29.68F WCI  17
FRANKFORT +    CLOUDY    35  14  42 S21       29.54F WCI  24
INDIANAPOLIS   CLOUDY    33  10  38 S18G31    29.60F WCI  22
-EAGLE CREEK   CLOUDY    32   9  38 S18G29    29.58F WCI  20
KOKOMO +       CLOUDY    30  13  49 S20G29    29.55F WCI  17
MT COMFORT *+  CLOUDY    28  14  54 S18       29.61F WCI  16
SHELBYVILLE    PTSUNNY   31  10  41 S21G30    29.64F WCI  18
ZIONSVILLE +   CLOUDY    31  10  41 S22G29    29.57F WCI  18

$$

INZ033-034-041-042-049-050-058-059-131800-
EAST CENTRAL INDIANA

CITY           SKY/WX    TMP DP  RH WIND       PRES   REMARKS
MUNCIE         CLOUDY    30   8  39 S17G24    29.61F WCI  18
RICHMOND +     CLOUDY    27  14  59 S22       29.69F WCI  12

$$

INZ060-061-067>069-081>083-085>088-131800-
SOUTHWEST INDIANA

CITY           SKY/WX    TMP DP  RH WIND       PRES   REMARKS
EVANSVILLE     SUNNY     39  16  39 SW22G33   29.72F WCI  29
HUNTINGBURG +  MOSUNNY   38  15  39 S22G30    29.74F WCI  27

$$

INZ062-063-066-070>080-084-089>092-131800-
SOUTH CENTRAL AND SOUTHEAST INDIANA

CITY           SKY/WX    TMP DP  RH WIND       PRES   REMARKS
BLOOMINGTON    CLOUDY    36  12  37 S22G29    29.63F WCI  25
SEYMOUR +      CLOUDY    36  12  38 S16G23    29.70F WCI  26

$$





USA.gov is the U.S. government's official web portal to all federal, state and local government web resources and services.